Location: San Antonio
(29.4240°N, 98.4930°W)
Time: 02:25:43
(UTC-05:00)

Transit 4A - All Passes

Search period start: 15 July 2024 00:00
Search period end: 25 July 2024 00:00
Orbit: 870 x 973 km, 66.8° (Epoch: 14 July)

Date Brightness Start Highest point End Pass type
(mag) Time Alt. Az. Time Alt. Az. Time Alt. Az.
15 Jul - 03:36:07 10° NNW 03:41:59 48° ENE 03:47:58 10° SE visible
15 Jul - 05:23:34 10° WNW 05:27:54 20° WSW 05:32:18 10° SSW visible
15 Jul - 16:51:44 10° SSE 16:56:17 24° ESE 17:00:50 10° NE daylight
15 Jul - 18:36:58 10° SW 18:42:18 37° WNW 18:47:39 10° N daylight
16 Jul - 03:44:57 10° NNW 03:51:03 75° ENE 03:57:16 10° SSE visible
16 Jul - 05:34:30 10° W 05:36:41 12° WSW 05:38:53 10° SW visible
16 Jul - 16:59:46 10° S 17:05:08 39° ESE 17:10:28 10° NE daylight
16 Jul - 18:46:52 10° WSW 18:51:28 24° WNW 18:56:06 10° N daylight
17 Jul - 02:09:45 10° NNE 02:13:14 15° NE 02:16:45 10° E visible
17 Jul - 03:53:57 10° NNW 04:00:01 71° WSW 04:06:14 10° SSE visible
17 Jul - 17:08:17 10° SSW 17:14:01 64° ESE 17:19:46 10° NNE daylight
17 Jul - 18:57:23 10° W 19:00:45 15° NW 19:04:07 10° NNW daylight
18 Jul - 02:17:44 10° N 02:22:31 24° ENE 02:27:22 10° ESE visible
18 Jul - 04:03:11 10° NW 04:08:57 45° WSW 04:14:51 10° S visible
18 Jul - 17:17:10 10° SSW 17:22:59 81° WNW 17:28:49 10° NNE daylight
19 Jul - 02:26:10 10° N 02:31:42 36° ENE 02:37:20 10° SE visible
19 Jul - 04:12:43 10° NW 04:17:49 28° WSW 04:23:02 10° SSW visible
19 Jul - 15:42:37 10° SE 15:46:12 17° ESE 15:49:47 10° ENE daylight
19 Jul - 17:26:23 10° SW 17:32:01 51° WNW 17:37:40 10° NNE daylight
20 Jul - 02:34:50 10° NNW 02:40:48 55° ENE 02:46:54 10° SE visible
20 Jul - 04:22:45 10° WNW 04:26:38 18° WSW 04:30:35 10° SW visible
20 Jul - 15:50:11 10° SSE 15:55:00 28° ESE 15:59:51 10° NE daylight
20 Jul - 17:35:59 10° WSW 17:41:07 32° WNW 17:46:17 10° N daylight
21 Jul - 01:01:00 10° NNE 01:02:46 11° NE 01:04:33 10° ENE visible
21 Jul - 02:43:43 10° NNW 02:49:50 85° ENE 02:56:06 10° SSE visible
21 Jul - 15:58:22 10° S 16:03:52 45° ESE 16:09:21 10° NE daylight
21 Jul - 17:46:02 10° WSW 17:50:20 21° NW 17:54:38 10° N daylight
22 Jul - 01:08:09 10° NNE 01:12:07 18° NE 01:16:08 10° E visible
22 Jul - 02:52:46 10° NNW 02:58:48 62° WSW 03:04:58 10° S visible
22 Jul - 16:07:00 10° SSW 16:12:47 74° ESE 16:18:34 10° NNE daylight
22 Jul - 17:56:50 10° W 17:59:37 14° NW 18:02:25 10° NNW daylight
23 Jul - 01:16:18 10° N 01:21:22 27° ENE 01:26:30 10° ESE visible
23 Jul - 03:02:05 10° NW 03:07:43 39° WSW 03:13:27 10° S visible
23 Jul - 14:34:26 10° ESE 14:36:10 11° ESE 14:37:54 10° E daylight
23 Jul - 16:15:58 10° SSW 16:21:45 70° WNW 16:27:34 10° NNE daylight
24 Jul - 01:24:49 10° N 01:30:32 40° ENE 01:36:21 10° SE visible
24 Jul - 03:11:43 10° NW 03:16:34 25° WSW 03:21:30 10° SSW visible
24 Jul - 14:40:52 10° SSE 14:44:56 20° ESE 14:48:58 10° ENE daylight
24 Jul - 16:25:18 10° SW 16:30:48 44° WNW 16:36:21 10° N daylight
